AirNav   Everest Fuels
 
 1166 users online  

KVLA Vandalia Municipal Airport
Vandalia, Illinois, USA

GOING TO VANDALIA?


FAA INFORMATION EFFECTIVE 16 JULY 2020

Location

FAA Identifier: VLA
Lat/Long: 38-59-29.2770N 089-09-58.2820W
38-59.487950N 089-09.971367W
38.9914658,-89.1661894
(estimated)
Elevation: 537.2 ft. / 163.7 m (surveyed)
Variation: 01W (2005)
From city: 3 miles NW of VANDALIA, IL
Time zone: UTC -5 (UTC -6 during Standard Time)
Zip code: 62471

Airport Operations

Airport use: Open to the public
Activation date: 07/1944
Control tower: no
ARTCC: KANSAS CITY CENTER
FSS: SAINT LOUIS FLIGHT SERVICE STATION
NOTAMs facility: STL (NOTAM-D service available)
Attendance: ALL/IRREGULAR/
Wind indicator: lighted
Segmented circle: yes
Lights: ACTVT REIL RWY 18, 27 & 36; PAPI RWY 18; MIRL RWY 09/27 - CTAF. MIRL RWY 18/36 PRESET TO LOW INTST, TO INCR INTST - CTAF.
Beacon: white-green (lighted land airport)
Operates sunset to sunrise.

Airport Communications

CTAF/UNICOM: 122.8
WX AWOS-A: 122.8 (618-283-9595)
WX AWOS-A at GRE (14 nm SW): 123.05 (618-664-1939)
  • APCH/DEP SVC PRVDD BY KANSAS CITY ARTCC ON FREQS 124.3/269.15 (DECATUR RCAG)

Nearby radio navigation aids

VOR radial/distance  VOR name  Freq  Var
VLAr178/6.1VANDALIA VOR/DME114.3004E
BIBr275/32.2BIBLE GROVE VORTAC109.0003E
ENLr355/34.3CENTRALIA VORTAC115.0004E
TOYr063/38.3TROY VORTAC116.0004E

 
NDB name  Hdg/Dist  Freq  Var  ID
SHELBYVILLE213/29.136502WSYZ ... -.-- --..

Airport Services

Fuel available: 100LL JET-A
FUEL IS SELF-SERVE WITH CREDIT CARD.
Parking: hangars and tiedowns
Airframe service: MAJOR
Powerplant service: MAJOR
Bottled oxygen: NONE
Bulk oxygen: NONE

Runway Information

Runway 18/36

Dimensions: 3751 x 100 ft. / 1143 x 30 m
Surface: asphalt/porous friction courses, in good condition
Weight bearing capacity: 
Single wheel: 21.0
Runway edge lights: medium intensity
RUNWAY 18  RUNWAY 36
Latitude: 38-59.855173N38-59.237187N
Longitude: 089-10.037287W089-10.032815W
Elevation: 530.1 ft.533.0 ft.
Traffic pattern: leftleft
Runway heading: 181 magnetic, 180 true001 magnetic, 360 true
Markings: nonprecision, in good conditionnonprecision, in good condition
Visual slope indicator: 4-light PAPI on left (3.00 degrees glide path)
Runway end identifier lights: yesyes
Touchdown point: yes, no lightsyes, no lights
Obstructions: 18 ft. road, 575 ft. from runway, 284 ft. left of centerline, 20:1 slope to clear14 ft. road, 522 ft. from runway, 278 ft. right of centerline, 23:1 slope to clear
APCH SLOPE 23:1 TO RELOCATED THR USING PART 77 SFC.

Runway 9/27

Dimensions: 3001 x 75 ft. / 915 x 23 m
Surface: asphalt, in fair condition
Weight bearing capacity: 
Single wheel: 19.0
Runway edge lights: medium intensity
RUNWAY 9  RUNWAY 27
Latitude: 38-59.413748N38-59.416520N
Longitude: 089-10.208473W089-09.575018W
Elevation: 531.6 ft.537.1 ft.
Traffic pattern: leftleft
Runway heading: 091 magnetic, 090 true271 magnetic, 270 true
Markings: basic, in fair conditionbasic, in fair condition
Runway end identifier lights: yes
Touchdown point: yes, no lightsyes, no lights

Airport Ownership and Management from official FAA records

Ownership: Publicly-owned
Owner: VANDALIA PARK DISTRICT
900 NORTH LOCUST
VANDALIA, IL 62471
Phone 618-283-4973
Manager: CHAD FELDPOUCH
1754 N. 400 ST
VANDALIA, IL 62471
Phone 618-267-8035

Airport Operational Statistics

Aircraft based on the field: 10
Single engine airplanes: 9
Multi engine airplanes: 1
    
Aircraft operations: avg 25/day *
88% local general aviation
11% transient general aviation
<1% air taxi
* for 12-month period ending 31 March 2020

Additional Remarks

A30A-27 8 FT CROPS 200 FT FM RWY END PENETRATING PART 77 SFC.
FOR WX ADVY, 3 CLICKS CTAF. PHONE (618)283-9595.
FOR CD CTC KANSAS CITY ARTCC AT 913-254-8508.

Instrument Procedures

NOTE: All procedures below are presented as PDF files. If you need a reader for these files, you should download the free Adobe Reader.

NOT FOR NAVIGATION. Please procure official charts for flight.
FAA instrument procedures published for use from 16 July 2020 at 0901Z to 13 August 2020 at 0900Z.

 
IAPs - Instrument Approach Procedures
RNAV (GPS) RWY 18   download (223KB)
RNAV (GPS) RWY 36   download (229KB)
VOR RWY 18   download (210KB)
NOTE: Special Alternate Minimums apply   download (59KB)
NOTE: Special Take-Off Minimums/Departure Procedures apply   download (201KB)

Other nearby airports with instrument procedures:

KGRE - Greenville Airport (14 nm SW)
KSLO - Salem-Leckrone Airport (23 nm SE)
3LF - Litchfield Municipal Airport (26 nm NW)
KENL - Centralia Municipal Airport (29 nm S)
2H0 - Shelby County Airport (29 nm NE)
 
Loc | Ops | Rwys | IFR | FBO | Links
Com | Nav | Svcs | Stats | Notes
Area around KVLA (Vandalia Municipal Airport)
 
Road maps at: MapQuest Bing Google
 
Aerial photo
WARNING: Photo may not be current or correct
Aerial photo of KVLA (Vandalia Municipal Airport)
Do you have a better or more recent aerial photo of Vandalia Municipal Airport that you would like to share? If so, please send us your photo.

 
Sectional chart

 
Airport distance calculator
Flying to Vandalia Municipal Airport? Find the distance to fly.

From to KVLA

Sunrise and sunset
Times for 03-Aug-2020
 Local
(UTC-5)
 Zulu
(UTC)
Morning civil twilight05:3210:32
Sunrise06:0111:01
Sunset20:0401:04
Evening civil twilight20:3401:34

Current date and time
Zulu (UTC)  03-Aug-2020 23:52:03
Local (UTC-5)  03-Aug-2020 18:52:03
 
METAR
KSLO 
23nm SE 
032335Z AUTO 36009KT 10SM BKN023 BKN031 OVC048 24/20 A2998 RMK AO2 T02410203
K3LF 
26nm NW 
032335Z AUTO 34009KT 10SM SCT060 BKN070 21/16 A3003 RMK AO2 T02100158
KENL 
29nm S 
032335Z AUTO 01009KT 10SM SCT023 BKN050 OVC060 23/20 A2998 RMK AO2 T02320201
K1H2 
30nm E 
032335Z AUTO 33003KT 10SM CLR 23/19 A2999 RMK AO2 T02310186
KTAZ 
33nm N 
032335Z AUTO 34009G14KT 10SM OVC070 21/16 A3002 RMK AO2 T02070160
KFOA 
39nm SE 
032335Z AUTO 01005KT 10SM SCT100 23/20 A2997 RMK AO2
KALN 
41nm W 
032250Z 01006KT 10SM SCT023 BKN060 23/19 A3002
KBLV 
42nm SW 
032256Z AUTO 34012KT 10SM FEW024 SCT037 23/19 A2998 RMK AO2 SLP153 T02310186 $
KMVN 
43nm S 
032256Z AUTO VRB06KT 10SM 24/21 A2996 RMK AO2 TSE18RAE13 SLP147 T02390206 PNO $
TAF
KBLV 
42nm SW 
031836Z 0318/0422 01006KT 9999 SCT010 BKN030 QNH3000INS TEMPO 0318/0323 35015G25KT 8000 -TSRA BKN030CB BECMG 0411/0412 36006KT 9000 BR SCT015 QNH3002INS BECMG 0414/0415 02006KT 9000 BR SCT015 BKN030 QNH3002INS TX28/0320Z TN15/0409Z
KMVN 
43nm S 
032057Z 0321/0418 33003KT P6SM VCTS SCT025 BKN040CB TEMPO 0321/0324 2SM -TSRA BKN030CB FM040000 36003KT P6SM BKN050 FM040800 36003KT P6SM SCT020 BKN030 FM041700 25008KT P6SM SCT020 BKN035
NOTAMs
Click for the latest NOTAMs
NOTAMs are issued by the DoD/FAA and will open in a separate window not controlled by AirNav.

 

 
 

FBO, Fuel Providers, and Aircraft Ground Support

  
 Business Name 
 
 Contact 
 
 Services / Description 
 
Fuel Prices
 
Comments
  
Vandalia Park District 618-267-8035
no information available

If you are affiliated with Vandalia Park District and would like to show here your services, contact info, web link, logo, and more, click here
100LL Jet A
SS $3.50 $2.75 
 Updated 30-Jul-2020
 
   4 read write
SS=Self service
Update Fuel Prices
 

Would you like to see your business listed on this page?

 If your business provides an interesting product or service to pilots, flight crews, aircraft, or users of the Vandalia Municipal Airport, you should consider listing it here.  To start the listing process, click on the button below
 
Add a business
 

Other Pages about Vandalia Municipal Airport

Update a link
 
Copyright © AirNav, LLC. All rights reserved. Privacy Policy  Contact